TimeCDT,TemperatureF,Dew PointF,Humidity,Sea Level PressureIn,VisibilityMPH,Wind Direction,Wind SpeedMPH,Gust SpeedMPH,PrecipitationIn,Events,Conditions,WindDirDegrees,DateUTC
12:53 AM,75.9,69.1,79,29.89,10.0,SSE,15.0,-,N/A,,Clear,150,2013-08-24 05:53:00
1:53 AM,75.0,69.1,82,29.88,10.0,SSE,13.8,-,N/A,,Clear,160,2013-08-24 06:53:00
2:53 AM,75.0,69.1,82,29.86,10.0,SSE,13.8,19.6,N/A,,Clear,150,2013-08-24 07:53:00
3:53 AM,73.9,69.1,85,29.85,10.0,SSE,13.8,26.5,N/A,,Partly Cloudy,150,2013-08-24 08:53:00
4:53 AM,73.9,69.1,85,29.85,10.0,SSE,15.0,21.9,N/A,,Clear,150,2013-08-24 09:53:00
5:53 AM,73.9,69.1,85,29.85,10.0,SSE,15.0,23.0,N/A,,Clear,150,2013-08-24 10:53:00
6:53 AM,73.9,69.1,85,29.85,10.0,SSE,18.4,24.2,N/A,,Clear,150,2013-08-24 11:53:00
7:53 AM,75.9,70.0,82,29.86,10.0,SE,13.8,23.0,0.00,Rain,Light Rain,140,2013-08-24 12:53:00
8:53 AM,77.0,71.1,82,29.86,10.0,SSE,20.7,27.6,0.00,,Clear,150,2013-08-24 13:53:00
9:53 AM,78.1,71.1,79,29.85,10.0,SSE,24.2,35.7,N/A,,Clear,150,2013-08-24 14:53:00
10:53 AM,81.0,72.0,74,29.84,10.0,South,18.4,27.6,N/A,,Partly Cloudy,170,2013-08-24 15:53:00
11:53 AM,82.9,72.0,69,29.84,10.0,South,18.4,32.2,N/A,,Clear,170,2013-08-24 16:53:00
12:53 PM,84.9,73.0,67,29.83,10.0,South,19.6,32.2,N/A,,Clear,180,2013-08-24 17:53:00
1:53 PM,88.0,73.0,61,29.82,10.0,South,19.6,31.1,N/A,,Clear,190,2013-08-24 18:53:00
2:53 PM,90.0,73.9,59,29.82,10.0,South,20.7,28.8,N/A,,Clear,190,2013-08-24 19:53:00
3:53 PM,93.0,73.0,52,29.81,10.0,SSW,21.9,31.1,N/A,,Clear,200,2013-08-24 20:53:00
4:53 PM,91.9,73.9,55,29.81,10.0,South,15.0,25.3,N/A,,Clear,180,2013-08-24 21:53:00
5:53 PM,91.0,73.9,57,29.81,10.0,South,13.8,26.5,N/A,,Clear,180,2013-08-24 22:53:00
6:53 PM,89.1,75.0,63,29.82,10.0,South,15.0,23.0,N/A,,Clear,180,2013-08-24 23:53:00
7:53 PM,88.0,73.9,63,29.82,10.0,South,15.0,-,N/A,,Clear,180,2013-08-25 00:53:00
8:53 PM,84.0,75.9,76,29.83,10.0,SSE,10.4,-,N/A,,Clear,160,2013-08-25 01:53:00
9:53 PM,82.9,75.0,77,29.84,10.0,South,12.7,-,N/A,,Clear,170,2013-08-25 02:53:00
10:53 PM,82.9,73.0,72,29.85,10.0,South,15.0,23.0,N/A,,Clear,170,2013-08-25 03:53:00
11:53 PM,82.9,71.1,67,29.85,10.0,South,15.0,25.3,N/A,,Partly Cloudy,180,2013-08-25 04:53:00